COSMOS 1540

导读

COSMOS 1540是苏联解体前独联体(CIS)在1984年3月2日发射的“宇宙”系列卫星,该系列从20世纪60年代开始持续发射,涵盖科研、导航及军事侦察多类任务,还曾将其他项目故障探测任务重新编号纳入。作为冷战时期航天活动的产物,它延续了该系列多用途卫星技术路线,至今已在轨运行超四十年,是独联体早期航天探索的重要见证,也为相关空间技术积累提供了数据支撑。

基本信息
目录编号:
14783
目录名称:
COSMOS 1540
国际标识:
1984-022A
轨道中心:
EARTH
卫星名称:
COSMOS 1540
卫星全名:
--
卫星状态:
在轨 (已飞行15447 天)
发射日期:
1984-03-02 UTC
国别 :
俄罗斯(独联体) (CIS)
星等 :
--
轨道信息
数据来源 国际轨道数据 AOE轨道数据
星历时间 2026-06-17T01:09:08+0800
19小时前
查看轨道信息
2026-06-17T03:00:00+0800
18小时前
查看轨道信息
半长轴 42161.196km 42161.309km
偏心率 0.0006893 0.0006863
轨道倾角 9.320° 9.319°
近地点辐角 292.068° 292.722°
升交点赤经 304.489° 304.491°
平近点角 2.184° 29.322°
近地点 35753.997km 35754.236km
远地点 35812.121km 35812.108km
周期 1435.916分钟 1435.922分钟
每日圈数 1.002844 1.00284
详细信息
使用方式:
暂无
2D轨道图
3D轨道图
轨道高度分析图
轨道倾角分析图
轨道综合分析图
查看轨道综合分析图